When you browse on this site, cookies collect data to enhance your experience and personalize the content and advertising you see.
Visit our Privacy Policy to learn more. By continuing to use the site, you agree to this use of cookies and data.
  • In Austria
  • List of Countries
  • For 7 days
  • Water Temperature
  • Weather Map
  • News
  • Weather Widgets
  • user-avatar
    Login

    Hourly Weather Los Reyes

    Today, 25 August, Sunday

    Time Temperature Precipitation Wind Pressure Humidity
    00:00 +14°C° 0 mm 1 mps 585 mmHg 90%
    01:00 +14°C° 0 mm 1 mps 585 mmHg 89%
    02:00 +14°C° 0 mm 1 mps 584 mmHg 88%
    03:00 +14°C° 0 mm 1 mps 584 mmHg 87%
    04:00 +14°C° 0 mm 2 mps 584 mmHg 86%
    05:00 +13°C° 0 mm 2 mps 584 mmHg 84%
    06:00 +16°C° 0 mm 1 mps 586 mmHg 77%
    07:00 +19°C° 0 mm 1 mps 587 mmHg 71%
    08:00 +19°C° 0 mm 0 mps 588 mmHg 65%
    09:00 +22°C° 0 mm 1 mps 588 mmHg 62%
    10:00 +23°C° 0 mm 1 mps 588 mmHg 59%
    11:00 +25°C° 0 mm 2 mps 589 mmHg 56%
    12:00 +24°C° 0.9 mm 2 mps 588 mmHg 65%
    13:00 +21°C° 0.9 mm 2 mps 586 mmHg 74%
    14:00 +20°C° 0.9 mm 2 mps 585 mmHg 83%
    15:00 +20°C° 1 mm 2 mps 585 mmHg 85%
    16:00 +20°C° 1 mm 1 mps 585 mmHg 88%
    17:00 +20°C° 1 mm 1 mps 585 mmHg 90%
    18:00 +19°C° 1 mm 1 mps 585 mmHg 91%
    19:00 +18°C° 1 mm 1 mps 585 mmHg 91%
    20:00 +16°C° 1 mm 1 mps 585 mmHg 91%
    21:00 +15°C° 0.2 mm 1 mps 584 mmHg 90%
    22:00 +15°C° 0.2 mm 1 mps 584 mmHg 88%
    23:00 +15°C° 0.2 mm 1 mps 584 mmHg 87%

    Tomorrow, 26 August, Monday

    Time Temperature Precipitation Wind Pressure Humidity
    00:00 +14°C° 0.1 mm 1 mps 584 mmHg 87%
    01:00 +14°C° 0.1 mm 2 mps 583 mmHg 86%
    02:00 +14°C° 0.1 mm 2 mps 583 mmHg 86%
    03:00 +14°C° 0.3 mm 2 mps 583 mmHg 85%
    04:00 +14°C° 0.3 mm 2 mps 583 mmHg 85%
    05:00 +14°C° 0.3 mm 2 mps 583 mmHg 84%
    06:00 +16°C° 0 mm 1 mps 584 mmHg 78%
    07:00 +19°C° 0 mm 1 mps 585 mmHg 71%
    08:00 +19°C° 0 mm 0 mps 587 mmHg 65%
    09:00 +22°C° 0.6 mm 1 mps 587 mmHg 66%
    10:00 +22°C° 0.6 mm 1 mps 587 mmHg 67%
    11:00 +23°C° 0.6 mm 2 mps 587 mmHg 68%
    12:00 +23°C° 0.8 mm 2 mps 586 mmHg 70%
    13:00 +23°C° 0.8 mm 2 mps 586 mmHg 72%
    14:00 +21°C° 0.8 mm 2 mps 585 mmHg 75%
    15:00 +20°C° 0.5 mm 2 mps 584 mmHg 80%
    16:00 +19°C° 0.5 mm 2 mps 584 mmHg 86%
    17:00 +19°C° 0.5 mm 1 mps 583 mmHg 91%
    18:00 +18°C° 0.3 mm 1 mps 584 mmHg 92%
    19:00 +16°C° 0.3 mm 1 mps 584 mmHg 93%
    20:00 +15°C° 0.3 mm 1 mps 584 mmHg 94%
    21:00 +15°C° 0 mm 1 mps 584 mmHg 91%
    22:00 +14°C° 0 mm 1 mps 584 mmHg 89%
    23:00 +14°C° 0 mm 1 mps 583 mmHg 86%

    Day after tomorrow, 27 August, Tuesday

    Time Temperature Precipitation Wind Pressure Humidity
    00:00 +14°C° 0 mm 1 mps 583 mmHg 86%
    01:00 +14°C° 0 mm 1 mps 583 mmHg 85%
    02:00 +14°C° 0 mm 1 mps 583 mmHg 84%
    03:00 +13°C° 0.1 mm 1 mps 583 mmHg 84%
    04:00 +13°C° 0.1 mm 1 mps 583 mmHg 84%
    05:00 +13°C° 0.1 mm 1 mps 583 mmHg 83%
    06:00 +15°C° 0 mm 1 mps 584 mmHg 79%
    07:00 +18°C° 0 mm 1 mps 586 mmHg 74%
    08:00 +20°C° 0 mm 1 mps 587 mmHg 69%
    09:00 +21°C° 0.1 mm 1 mps 587 mmHg 67%
    10:00 +21°C° 0.1 mm 2 mps 587 mmHg 64%
    11:00 +23°C° 0.1 mm 2 mps 587 mmHg 62%
    12:00 +21°C° 1.1 mm 2 mps 587 mmHg 70%
    13:00 +20°C° 1.1 mm 2 mps 586 mmHg 78%
    14:00 +19°C° 1.1 mm 2 mps 585 mmHg 87%
    15:00 +18°C° 0.7 mm 2 mps 585 mmHg 88%
    16:00 +18°C° 0.7 mm 2 mps 584 mmHg 89%
    17:00 +18°C° 0.7 mm 1 mps 584 mmHg 90%
    18:00 +16°C° 0.2 mm 1 mps 584 mmHg 92%
    19:00 +15°C° 0.2 mm 1 mps 584 mmHg 93%
    20:00 +14°C° 0.2 mm 1 mps 585 mmHg 94%
    21:00 +14°C° 0.1 mm 1 mps 585 mmHg 93%
    22:00 +14°C° 0.1 mm 1 mps 585 mmHg 92%
    23:00 +14°C° 0.1 mm 1 mps 585 mmHg 91%

    28 August, Wednesday

    Time Temperature Precipitation Wind Pressure Humidity
    00:00 +13°C° 0.1 mm 1 mps 585 mmHg 91%
    01:00 +13°C° 0.1 mm 1 mps 585 mmHg 90%
    02:00 +13°C° 0.1 mm 1 mps 585 mmHg 89%
    03:00 +13°C° 0.1 mm 1 mps 585 mmHg 89%
    04:00 +13°C° 0.1 mm 1 mps 585 mmHg 89%
    05:00 +12°C° 0.1 mm 1 mps 585 mmHg 89%
    06:00 +15°C° 0 mm 1 mps 586 mmHg 83%
    07:00 +18°C° 0 mm 1 mps 587 mmHg 77%
    08:00 +20°C° 0 mm 1 mps 589 mmHg 71%
    09:00 +21°C° 0 mm 1 mps 589 mmHg 68%
    10:00 +21°C° 0 mm 2 mps 589 mmHg 65%
    11:00 +22°C° 0 mm 3 mps 589 mmHg 62%
    12:00 +21°C° 0.1 mm 3 mps 589 mmHg 63%
    13:00 +21°C° 0.1 mm 4 mps 588 mmHg 64%
    14:00 +21°C° 0.1 mm 4 mps 587 mmHg 65%
    15:00 +19°C° 0.2 mm 3 mps 587 mmHg 72%
    16:00 +18°C° 0.2 mm 3 mps 586 mmHg 78%
    17:00 +17°C° 0.2 mm 2 mps 585 mmHg 85%
    18:00 +16°C° 0.2 mm 2 mps 586 mmHg 88%
    19:00 +14°C° 0.2 mm 1 mps 586 mmHg 92%
    20:00 +13°C° 0.2 mm 1 mps 586 mmHg 96%
    21:00 +13°C° 0 mm 1 mps 586 mmHg 95%
    22:00 +13°C° 0 mm 1 mps 586 mmHg 95%
    23:00 +13°C° 0 mm 1 mps 586 mmHg 94%

    29 August, Thursday

    Time Temperature Precipitation Wind Pressure Humidity
    00:00 +12°C° 0 mm 1 mps 585 mmHg 94%
    01:00 +12°C° 0 mm 1 mps 585 mmHg 93%
    02:00 +11°C° 0 mm 1 mps 584 mmHg 93%
    03:00 +11°C° 0 mm 1 mps 584 mmHg 91%
    04:00 +11°C° 0 mm 1 mps 584 mmHg 89%
    05:00 +10°C° 0 mm 1 mps 584 mmHg 88%
    06:00 +13°C° 0 mm 1 mps 586 mmHg 79%
    07:00 +15°C° 0 mm 1 mps 587 mmHg 70%
    08:00 +19°C° 0 mm 1 mps 589 mmHg 61%
    09:00 +20°C° 0 mm 1 mps 589 mmHg 58%
    10:00 +20°C° 0 mm 2 mps 589 mmHg 55%
    11:00 +21°C° 0 mm 3 mps 590 mmHg 52%
    12:00 +21°C° 0 mm 3 mps 589 mmHg 57%
    13:00 +21°C° 0 mm 3 mps 588 mmHg 62%
    14:00 +21°C° 0 mm 4 mps 587 mmHg 67%
    15:00 +19°C° 0.2 mm 3 mps 587 mmHg 75%
    16:00 +18°C° 0.2 mm 3 mps 586 mmHg 83%
    17:00 +16°C° 0.2 mm 2 mps 586 mmHg 91%
    18:00 +15°C° 0.3 mm 1 mps 586 mmHg 93%
    19:00 +15°C° 0.3 mm 1 mps 586 mmHg 95%
    20:00 +13°C° 0.3 mm 0 mps 586 mmHg 96%
    21:00 +13°C° 0 mm 1 mps 586 mmHg 96%
    22:00 +13°C° 0 mm 1 mps 586 mmHg 95%
    23:00 +13°C° 0 mm 1 mps 586 mmHg 95%

    30 August, Friday

    Time Temperature Precipitation Wind Pressure Humidity
    00:00 +12°C° 0 mm 1 mps 585 mmHg 93%
    01:00 +12°C° 0 mm 1 mps 585 mmHg 92%
    02:00 +11°C° 0 mm 1 mps 584 mmHg 91%
    03:00 +11°C° 0 mm 1 mps 584 mmHg 89%
    04:00 +11°C° 0 mm 1 mps 584 mmHg 87%
    05:00 +10°C° 0 mm 1 mps 584 mmHg 85%
    06:00 +13°C° 0 mm 1 mps 585 mmHg 75%
    07:00 +16°C° 0 mm 1 mps 587 mmHg 66%
    08:00 +17°C° 0 mm 0 mps 588 mmHg 56%
    09:00 +20°C° 0 mm 1 mps 588 mmHg 55%
    10:00 +20°C° 0 mm 2 mps 588 mmHg 53%
    11:00 +21°C° 0 mm 3 mps 589 mmHg 52%
    12:00 +21°C° 0 mm 3 mps 588 mmHg 56%
    13:00 +21°C° 0 mm 3 mps 587 mmHg 60%
    14:00 +20°C° 0 mm 4 mps 586 mmHg 64%
    15:00 +19°C° 0.1 mm 3 mps 586 mmHg 71%
    16:00 +18°C° 0.1 mm 2 mps 585 mmHg 79%
    17:00 +16°C° 0.1 mm 2 mps 585 mmHg 86%
    18:00 +15°C° 0 mm 1 mps 585 mmHg 89%
    19:00 +14°C° 0 mm 1 mps 585 mmHg 91%
    20:00 +13°C° 0 mm 1 mps 585 mmHg 94%
    21:00 +13°C° 0 mm 1 mps 585 mmHg 92%
    22:00 +13°C° 0 mm 1 mps 585 mmHg 90%
    23:00 +12°C° 0 mm 1 mps 585 mmHg 87%
    Show more